RH
10 9 8 8 8 6 13 64 67 60 60 67 74 81 82 88 92 77 76 87 96 96 83 77 77 63 91 96 97 89 97 97 92 83 75 67 68 60 57 48 68 76 88 96 93 92 82 46 69 71 97 99 98 99
10 9 8 8 6 9 60 71 61 57 58 64 72 80 88 96 97 93 55 78 96 100 89 76 66 64 77 80 88 78 90 95 97 93 87 92 87 78 58 67 90 95 88 93 80 78 81 82 54 66 78 91 97 99
10 9 8 6 7 47 71 78 83 88 82 78 80 84 88 93 97 96 82 72 94 99 86 69 48 60 58 62 76 71 75 95 96 98 96 95 90 90 81 86 92 96 97 95 93 91 84 76 87 73 100 99 98 98
9 8 6 6 46 68 76 87 93 96 94 95 95 96 97 97 97 97 92 75 94 96 79 53 68 56 52 52 54 54 59 82 92 94 95 87 86 86 92 93 97 97 90 95 98 93 87 93 88 94 98 99 99 88
9 7 6 38 68 77 85 89 94 93 95 96 96 96 96 96 97 96 98 72 88 85 95 96 61 57 56 56 58 45 49 62 63 60 66 79 96 95 98 97 96 97 96 91 98 98 97 98 100 98 97 98 91 77
7 8 44 68 76 90 94 92 98 94 95 94 96 97 96 92 95 95 89 54 77 78 90 81 65 72 67 51 49 45 44 58 57 51 59 64 95 96 97 97 96 98 95 97 97 98 95 93 93 93 79 86 92 66
15 55 69 75 80 81 89 97 97 97 97 97 96 96 93 93 88 76 38 45 60 81 99 87 67 64 69 54 44 48 52 53 50 58 71 70 85 96 97 99 94 88 95 95 93 96 96 94 82 76 84 83 74 54
64 65 68 81 88 88 94 96 96 99 97 98 77 88 100 100 85 54 59 58 55 70 86 88 80 84 84 67 49 55 85 83 81 82 76 83 86 94 90 95 95 94 95 84 85 86 84 86 75 64 63 70 73 69
82 88 88 87 93 96 96 96 99 96 96 55 91 100 85 60 50 70 94 86 73 75 89 82 88 93 96 97 91 86 90 97 96 89 84 96 98 97 94 96 92 89 91 86 77 70 73 69 71 71 71 74 70 68
94 95 89 96 99 96 96 97 96 96 49 37 46 60 56 52 65 96 98 100 97 100 96 88 75 90 95 97 97 95 97 96 93 88 90 97 98 88 85 83 79 79 90 80 87 89 77 71 72 75 76 79 79 77
95 96 97 96 97 96 98 98 95 85 35 39 54 67 53 74 78 88 85 86 97 85 74 59 59 74 91 97 95 93 89 94 85 89 99 98 88 71 72 78 88 92 94 99 100 95 87 81 79 80 81 79 78 81
92 93 97 97 96 98 98 95 87 43 30 36 77 70 87 92 89 96 96 89 72 66 82 79 62 54 63 95 92 86 92 93 96 97 95 96 79 76 77 86 89 82 79 79 76 77 75 76 81 85 89 91 92 94
94 95 91 94 95 99 96 92 74 61 60 88 76 85 88 89 98 94 80 68 72 74 74 74 75 80 90 97 85 91 97 95 90 97 96 84 74 80 84 88 89 85 78 76 76 77 82 90 92 91 91 91 91 90
94 96 98 92 91 94 91 96 93 96 97 94 90 93 94 80 90 97 78 60 57 68 74 90 100 99 89 76 71 72 85 94 94 97 88 76 79 80 82 82 84 84 84 85 89 93 95 95 92 90 89 90 88 92
97 96 95 92 97 97 97 97 94 87 86 89 79 68 77 64 80 77 87 67 58 66 85 96 96 89 77 67 61 61 96 99 97 91 84 82 82 84 85 86 90 96 98 98 98 96 96 96 95 94 91 91 91 94
97 94 97 97 97 96 96 93 94 96 95 79 78 72 66 55 57 78 84 88 72 63 88 99 93 86 79 67 86 97 100 90 83 80 78 81 86 91 94 95 96 96 96 96 96 96 97 97 96 96 96 97 95 85
95 86 96 97 98 99 96 97 96 96 94 65 57 60 60 60 58 64 78 91 75 74 88 86 82 87 82 84 87 88 85 76 81 84 88 90 92 95 96 96 97 97 97 98 97 97 97 97 97 97 96 94 74 60
84 94 96 96 96 96 96 96 96 91 73 61 55 64 67 73 69 70 81 90 85 78 82 85 87 86 81 80 80 79 85 85 89 92 94 94 94 95 95 96 97 98 98 98 98 97 97 97 95 88 75 65 55 50
97 96 97 97 97 96 96 96 92 69 63 62 64 61 62 64 70 82 84 90 91 97 95 90 87 87 87 88 83 88 92 92 92 93 93 93 94 96 97 97 96 96 96 97 97 97 96 88 68 52 42 30 24 20
95 95 98 98 95 94 92 83 78 74 66 62 65 66 71 78 88 93 97 96 96 96 97 95 90 86 84 83 86 90 92 93 92 95 94 95 96 96 96 97 98 99 99 99 97 84 60 43 31 22 20 18 19 20
96 97 97 97 97 96 94 85 81 78 73 73 85 89 93 96 97 99 99 99 100 97 97 91 91 88 87 88 88 88 91 94 95 97 97 96 96 99 100 100 100 100 95 73 54 36 21 19 19 20 19 18 18 17
92 96 96 97 98 96 95 84 80 79 78 87 93 94 99 99 99 99 99 99 100 97 96 94 92 91 90 89 89 90 88 86 90 94 98 99 99 98 97 82 51 34 21 17 15 14 14 14 15 16 17 18 19 19
93 93 95 96 95 91 92 94 92 91 96 96 99 100 100 98 96 98 100 97 93 95 95 94 92 91 93 88 85 86 89 91 93 94 96 92 72 51 38 24 17 15 14 14 15 16 16 16 18 19 21 24 24 25
95 96 95 91 81 84 90 92 96 96 98 97 98 96 100 99 97 94 87 88 91 93 92 92 90 87 83 84 87 90 91 86 69 52 41 32 23 16 13 13 13 14 15 16 17 17 17 18 21 22 24 24 25 26
97 88 82 80 91 96 97 100 99 96 98 98 97 94 93 93 92 89 86 89 89 88 87 86 84 83 86 90 93 86 55 43 35 26 17 14 12 13 15 17 18 19 19 19 19 19 21 21 22 24 27 29 29 27
90 83 77 80 92 92 93 99 91 90 93 94 90 92 93 84 79 78 80 80 78 76 78 81 84 89 91 80 52 43 41 27 18 12 11 12 15 18 19 20 21 21 21 21 20 21 22 25 27 28 29 31 30 26
70 66 68 70 72 84 100 96 90 90 91 83 84 83 70 58 63 64 67 72 75 76 82 90 91 86 58 38 33 30 23 14 12 12 15 18 20 22 24 23 21 22 22 25 25 26 26 27 28 29 30 30 26 25
54 57 64 65 63 70 74 80 79 77 74 74 69 33 16 20 32 44 59 68 79 85 85 73 57 44 38 35 27 18 13 12 13 16 20 23 25 25 22 23 24 24 25 28 28 29 29 29 30 30 29 28 26 26
39 52 61 65 62 60 56 52 41 50 53 24 10 6 6 11 33 47 55 70 71 68 62 51 41 34 30 23 16 13 13 14 17 21 26 29 27 25 26 27 28 28 28 29 30 31 31 31 30 27 25 25 25 25
40 53 61 67 65 51 37 31 24 26 32 21 9 7 7 14 22 41 55 60 60 54 41 36 36 29 22 15 13 14 15 18 21 26 27 24 24 25 23 24 26 28 29 29 27 23 21 21 22 22 21 20 20 21
43 61 67 66 67 49 36 27 18 21 26 20 8 9 12 18 28 37 41 36 31 30 30 30 22 16 13 14 14 16 19 23 27 27 25 24 21 19 19 19 18 17 17 18 20 21 20 18 18 20 26 33 39 44
68 71 69 67 65 52 35 18 21 27 17 9 12 13 22 22 22 20 19 20 24 24 18 15 14 14 14 15 17 20 25 29 27 25 23 20 19 17 15 16 17 21 22 20 16 17 23 32 37 42 51 61 65 68
76 74 73 70 60 42 28 18 17 11 11 14 14 13 18 22 20 19 14 16 15 12 12 12 12 14 16 18 22 28 29 26 25 22 20 18 16 16 19 22 21 16 16 21 33 38 40 50 60 63 64 66 67 67
Wind_Speed
28 25 23 23 22 21 21 19 17 17 18 18 18 17 17 17 21 26 26 28 28 28 27 24 17 18 17 7 11 17 3 4 7 8 6 6 7 8 8 16 15 12 8 12 20 10 11 16 8 9 5 14 14 23
26 23 23 23 21 21 18 16 16 18 20 21 22 23 23 26 23 23 27 28 25 25 23 18 19 21 19 12 15 17 14 6 3 5 7 6 7 6 10 11 12 11 27 12 11 11 9 9 19 18 13 11 19 16
23 23 23 21 20 20 17 17 18 20 22 25 27 28 28 27 28 33 23 24 25 23 25 24 21 15 19 15 13 18 15 11 4 1 2 3 4 6 8 10 13 5 4 6 15 16 15 19 11 19 20 22 21 16
23 23 20 20 20 18 17 17 18 18 17 18 21 23 24 26 27 29 33 22 24 20 20 18 12 15 16 18 18 16 13 15 13 7 4 6 8 9 14 10 1 4 7 10 14 17 16 20 18 21 25 22 21 18
23 21 20 20 18 17 18 16 16 16 15 14 15 18 18 23 26 32 25 22 23 21 8 7 11 12 12 12 13 16 15 13 13 12 11 12 10 13 6 6 4 3 9 11 12 15 8 18 16 13 5 17 14 9
21 21 20 19 17 17 14 14 17 14 14 15 16 18 16 19 27 27 25 27 25 21 20 13 3 7 12 18 18 15 14 15 16 16 15 15 13 11 2 5 8 7 14 13 13 17 9 7 8 7 6 6 6 6
20 19 19 18 18 18 16 10 11 13 14 13 12 14 18 23 26 26 21 19 22 20 14 9 8 12 17 17 16 16 17 18 18 17 17 16 12 12 7 9 5 7 5 6 5 3 4 9 8 9 6 5 7 10
18 19 18 17 17 17 13 7 8 11 12 12 13 20 24 25 24 20 10 13 20 19 14 7 11 10 15 16 16 17 19 17 19 17 17 13 8 6 5 3 6 6 5 6 4 6 6 4 6 9 11 12 15 14
17 16 16 15 16 15 15 12 16 12 13 18 26 28 28 28 28 22 12 10 11 17 8 13 17 18 3 12 14 20 19 17 11 15 18 10 11 6 6 6 4 5 10 13 11 9 8 11 15 15 15 15 15 15
13 14 18 18 16 13 18 21 17 15 24 30 32 32 29 29 29 21 15 11 9 14 18 17 14 16 11 12 7 15 11 15 7 10 9 13 12 11 13 16 15 14 14 15 15 16 14 15 18 17 15 14 14 15
13 16 16 17 21 22 22 24 20 26 28 31 32 23 28 26 25 17 7 7 8 5 8 9 10 14 10 3 8 6 6 8 6 5 10 5 12 17 18 19 21 20 16 12 13 17 17 14 14 14 13 12 13 13
13 18 21 19 21 27 29 27 25 29 30 31 27 28 29 23 11 7 8 7 6 6 4 2 5 6 6 2 5 6 5 7 3 7 7 5 16 14 13 12 11 9 10 12 13 15 16 17 16 14 13 10 9 7
11 15 21 28 30 34 32 28 33 32 33 25 27 22 18 13 10 8 12 9 9 6 7 4 4 6 7 5 5 2 3 4 4 5 5 9 10 8 10 12 13 14 14 17 16 16 15 14 12 9 7 5 4 3
19 26 33 34 35 36 31 38 37 34 29 26 15 13 9 7 8 8 16 16 10 5 8 7 5 6 7 8 3 2 4 5 5 4 6 7 7 8 10 13 14 13 13 12 11 9 7 5 3 2 1 2 4 7
32 33 34 35 35 32 36 38 36 35 27 10 9 7 10 9 9 11 13 14 16 9 10 11 11 6 8 3 4 4 5 5 6 5 6 7 9 11 12 13 11 8 7 5 3 3 3 4 5 6 6 6 5 3
26 31 29 27 34 36 37 34 35 33 20 12 4 6 13 14 11 13 16 16 16 11 12 13 9 5 7 4 5 6 4 6 5 5 6 8 9 10 8 6 5 3 3 3 4 6 7 7 6 4 1 1 3 6
30 35 36 38 38 41 41 36 31 29 5 7 12 11 16 17 15 15 16 16 15 13 15 7 6 6 4 4 5 6 7 8 7 8 9 7 5 4 3 4 5 6 8 8 7 6 4 2 2 4 5 7 10 12
23 29 30 34 35 37 34 31 21 11 10 7 10 9 8 6 7 9 16 17 17 16 14 6 3 6 4 3 5 9 10 9 8 7 5 3 4 6 8 8 9 8 7 5 3 3 4 6 8 10 12 14 15 16
22 23 24 27 31 24 19 22 12 9 11 10 6 6 6 8 9 10 12 15 15 15 13 8 4 4 8 9 7 5 6 6 4 2 3 6 9 10 10 8 6 5 4 4 6 8 10 12 14 15 17 18 19 19
20 25 22 21 24 22 14 8 16 11 9 12 11 7 6 10 13 14 14 15 15 14 13 11 10 6 4 4 4 3 2 2 4 6 9 10 10 8 6 4 3 4 6 9 12 14 16 18 20 22 22 23 23 23
15 15 16 16 19 19 14 11 14 10 11 13 15 13 12 13 14 14 14 15 16 16 16 12 11 8 6 4 3 4 7 11 12 11 8 6 4 2 2 5 7 9 12 14 16 17 18 19 19 20 21 21 22 22
12 14 15 14 14 12 8 11 8 11 14 17 17 15 14 14 14 14 12 13 14 13 11 9 8 6 4 5 9 12 10 9 8 5 3 2 3 5 8 10 13 14 15 16 17 19 20 21 21 21 20 21 21 21
11 11 10 9 6 7 8 12 14 14 11 17 15 14 14 14 14 13 11 13 13 12 10 8 8 9 12 13 12 10 8 5 4 2 3 5 7 10 12 13 14 15 16 17 19 20 21 21 21 20 19 18 18 18
11 10 6 4 6 6 14 13 14 15 15 19 17 11 14 13 13 10 9 10 12 11 12 12 14 14 13 10 7 5 3 2 3 5 7 8 10 11 13 15 16 17 18 18 19 20 19 18 17 17 16 16 15 15
5 5 3 4 4 10 12 14 17 16 21 20 17 10 11 10 10 9 11 13 15 15 17 18 16 13 10 7 4 3 4 5 6 8 9 10 10 12 14 16 18 18 18 17 16 16 16 15 15 14 14 15 16 17
3 4 4 6 11 9 11 16 15 18 22 18 12 13 13 9 6 5 12 14 16 17 17 14 9 6 5 5 4 3 6 9 10 10 11 12 12 12 12 13 15 17 17 17 16 14 14 14 14 15 15 15 16 16
3 2 3 6 7 13 14 12 20 24 20 10 16 17 11 5 5 13 19 20 17 14 13 10 9 7 5 4 5 6 8 9 10 11 12 13 14 14 13 13 14 15 16 16 15 14 14 14 14 15 15 16 16 16
4 3 6 8 14 15 22 23 18 12 10 16 19 11 6 6 8 19 19 18 18 15 13 11 7 5 4 6 7 8 9 9 10 11 12 13 13 14 15 15 16 15 15 15 15 15 15 15 16 16 16 17 17 17
5 6 10 13 18 20 16 12 7 12 21 16 9 5 4 5 17 19 19 18 15 12 10 7 5 5 6 7 8 9 10 11 11 11 11 12 13 15 15 16 16 15 15 15 15 16 16 16 17 17 17 18 19 19
7 10 15 18 21 19 16 11 10 14 19 11 4 3 5 10 19 20 19 15 13 10 7 6 5 6 7 8 9 10 11 11 11 10 10 12 13 15 15 14 14 15 15 15 15 15 16 16 17 17 18 19 20 21
12 15 19 21 23 19 15 11 11 16 18 10 4 7 6 12 16 16 15 13 10 8 7 6 6 7 8 9 10 11 10 10 10 12 13 15 15 15 15 15 15 15 15 16 16 16 17 17 17 18 18 19 20 21
16 18 18 21 22 19 16 13 14 18 14 10 12 14 14 14 12 11 11 9 8 6 6 5 6 7 8 10 10 10 10 10 11 13 14 14 15 15 15 15 16 16 16 16 16 16 16 17 18 19 19 20 21 21
16 16 15 17 20 19 17 16 16 15 15 15 16 15 15 12 10 11 9 9 8 6 5 6 7 8 8 9 9 9 10 12 13 14 14 14 14 14 15 15 16 16 16 16 16 17 18 18 18 19 20 21 22 23
Wind_Direction
253 258 263 264 268 269 273 268 257 246 236 229 236 236 237 235 231 232 235 231 236 242 247 258 257 258 227 297 290 283 15 120 261 212 217 220 241 246 262 289 276 260 221 218 228 240 263 247 278 280 236 168 173 160
252 255 257 262 262 266 259 257 250 241 240 239 242 244 248 239 228 232 234 228 233 240 246 251 255 259 248 280 290 291 291 322 221 161 201 199 221 239 254 277 275 251 231 214 216 224 225 280 247 247 240 225 210 205
251 251 255 255 258 252 247 251 253 253 254 256 257 256 252 246 238 228 230 222 225 239 249 251 249 249 249 245 258 271 284 284 1 83 62 200 228 253 254 265 262 288 281 256 210 222 235 242 248 219 194 205 199 184
247 250 250 252 246 239 246 250 251 253 260 264 255 252 248 238 232 222 225 219 215 228 246 251 240 234 234 242 257 266 277 282 313 331 302 300 281 281 239 242 234 289 300 316 231 245 236 223 228 229 189 188 187 191
245 246 247 243 233 237 248 252 258 252 252 262 249 253 244 228 228 207 218 214 208 216 233 256 243 246 243 250 258 255 255 263 279 288 291 297 290 309 183 175 112 78 12 335 214 197 202 165 186 206 179 175 172 150
242 244 238 225 231 234 248 240 262 249 246 247 257 243 219 189 189 192 202 201 203 215 236 261 269 231 235 238 238 240 248 247 258 277 282 274 298 334 334 108 132 59 17 30 134 119 52 27 12 29 6 342 7 325
241 231 219 227 229 237 234 236 252 253 236 242 236 194 183 183 182 192 194 198 196 204 219 285 287 231 234 236 225 213 220 232 252 261 263 260 284 285 290 188 230 306 339 45 77 95 12 357 8 341 332 304 275 274
222 222 227 229 232 224 207 238 234 216 219 210 188 169 167 169 173 173 170 185 196 205 220 242 273 278 228 218 207 202 213 225 245 248 250 265 275 272 249 210 238 269 296 347 343 306 311 303 317 326 309 287 279 282
220 218 218 215 202 204 212 221 205 207 189 170 154 155 157 165 160 151 149 153 181 201 220 250 267 297 151 206 200 214 219 226 230 239 245 255 233 224 220 215 188 229 268 286 287 282 282 301 308 307 306 292 282 278
207 207 206 207 213 217 189 183 192 185 168 164 157 155 160 159 154 153 149 141 184 214 226 254 265 273 339 151 145 182 196 185 215 227 214 220 232 242 249 251 248 248 252 270 280 282 281 285 294 296 301 300 290 281
217 217 207 197 189 179 170 183 186 174 169 161 151 142 146 149 160 170 193 207 198 222 251 273 250 260 313 77 144 119 152 164 196 199 197 212 239 242 244 253 269 283 287 271 268 280 282 276 276 283 288 292 290 288
228 210 200 197 185 173 177 179 174 163 154 146 137 140 141 149 161 199 170 188 203 228 236 244 197 205 244 231 174 177 172 180 198 192 191 236 244 246 253 266 268 281 293 300 295 290 293 294 295 298 305 306 308 312
184 186 186 179 169 169 168 167 151 148 149 149 151 154 163 167 185 193 188 182 198 203 194 193 171 172 193 184 132 145 177 158 168 192 222 249 264 265 261 268 275 278 273 274 284 286 286 288 289 289 296 312 331 334
120 131 140 148 153 156 158 155 153 148 142 137 143 157 178 187 187 191 199 203 187 196 184 168 168 163 158 164 151 178 169 175 204 239 246 275 278 279 280 281 282 280 277 276 278 278 273 263 268 280 271 97 109 95
118 121 130 138 140 150 155 158 161 164 164 146 147 186 193 189 175 200 195 195 196 192 194 191 187 167 172 177 197 202 187 208 223 236 271 283 276 276 278 281 281 273 267 260 246 219 192 156 134 126 120 108 91 78
121 125 134 142 145 149 153 156 158 163 171 182 181 206 182 188 204 192 180 184 190 188 179 180 183 193 196 207 194 207 204 214 242 256 280 282 276 274 267 257 251 235 212 182 164 145 131 129 135 133 116 309 296 292
124 124 133 140 149 157 161 168 171 173 161 183 179 176 170 184 195 186 186 180 181 175 168 158 169 180 187 216 214 221 232 264 264 269 282 279 260 243 204 185 171 157 147 141 139 141 153 188 245 276 292 298 296 296
129 135 145 149 151 159 161 164 162 181 204 181 167 162 163 177 200 185 183 186 186 188 181 176 174 191 211 235 261 264 255 263 268 271 269 240 179 158 152 146 146 146 147 157 183 229 275 288 296 300 298 298 299 299
139 148 150 159 167 163 156 169 177 191 195 204 188 191 211 218 204 198 193 186 187 192 203 221 243 260 244 259 269 259 245 256 266 229 169 153 142 140 142 150 161 177 206 247 275 290 297 297 296 295 296 297 298 300
147 160 154 155 171 181 186 198 208 222 228 220 217 210 199 189 181 182 181 186 191 200 215 224 234 253 268 296 292 279 245 171 132 132 140 139 140 149 164 187 230 274 288 294 298 303 304 305 306 309 308 305 303 302
160 161 164 173 188 186 192 192 193 211 215 190 179 169 168 169 170 176 180 188 202 210 220 234 240 252 270 264 221 164 147 137 131 134 142 147 157 189 255 272 281 289 294 297 297 297 296 298 299 298 300 303 303 304
149 149 155 162 173 175 173 178 186 174 168 169 169 165 168 167 168 175 183 196 207 217 220 222 224 224 209 158 135 131 138 138 138 141 155 203 260 283 289 292 296 298 301 303 304 305 306 307 308 307 306 306 305 306
149 155 160 161 168 168 162 171 168 167 160 171 162 164 173 177 185 181 189 203 207 205 203 198 188 163 144 144 145 149 154 161 176 212 266 281 287 290 293 297 304 308 310 310 308 307 307 308 308 306 307 305 304 304
157 156 169 187 184 170 172 173 177 169 162 167 172 177 180 184 186 192 213 207 198 191 179 167 156 151 151 155 159 163 181 240 270 283 291 302 308 310 312 311 307 304 305 306 306 307 308 308 306 307 309 308 307 307
169 178 191 183 169 172 166 169 174 176 173 173 173 173 175 176 188 203 206 189 178 171 162 158 160 163 167 169 180 228 271 288 298 304 303 303 307 306 306 305 305 308 311 313 312 309 309 309 309 311 312 310 310 307
208 206 196 169 142 144 157 168 181 181 168 162 172 169 165 173 176 182 175 170 167 160 157 157 160 166 182 208 236 273 288 300 306 307 307 306 306 304 303 304 307 310 315 315 317 316 312 312 312 311 311 310 310 309
215 215 186 166 147 146 154 158 151 159 161 173 174 164 159 171 170 170 165 161 161 155 154 161 178 202 230 266 286 292 298 302 304 307 309 310 312 315 316 317 317 318 319 319 319 318 317 315 314 313 311 311 311 309
206 192 168 160 152 144 136 134 143 155 180 165 155 172 187 190 181 169 164 161 161 166 178 191 202 218 244 267 287 301 305 304 306 307 305 306 312 315 317 319 320 321 319 318 318 318 318 318 318 317 315 314 313 313
195 184 174 168 166 164 160 153 146 152 156 148 143 132 132 155 156 166 170 171 178 182 190 202 224 256 279 295 304 307 307 310 312 311 310 311 313 315 316 315 317 319 320 322 322 320 320 319 317 316 315 315 314 314
218 199 185 177 178 179 176 171 162 163 169 162 163 188 190 174 171 171 175 178 180 187 200 217 246 270 286 296 303 305 305 306 306 306 307 311 313 314 316 318 318 320 321 321 319 317 317 317 317 318 318 318 318 317
211 195 190 187 183 178 177 176 174 172 173 177 188 155 154 165 166 167 172 178 184 192 204 226 253 279 293 299 303 305 308 312 314 316 317 319 321 322 323 324 324 323 322 321 321 322 322 322 322 323 323 322 322 321
188 187 190 189 181 176 175 171 172 173 179 176 165 155 152 159 164 167 166 167 175 202 226 246 262 275 288 296 303 307 310 313 315 318 319 322 324 325 325 325 323 323 322 323 324 325 326 326 326 326 325 325 325 324
172 174 173 181 177 173 171 167 166 171 174 169 167 161 159 163 167 168 176 192 211 227 241 264 287 297 303 306 306 310 313 316 319 321 323 323 324 325 324 323 323 324 325 327 328 328 327 328 329 330 328 327 326 326